Mombasa, Kenya

7:35 AM EAT on September 20, 2017 (GMT +0300)
Mombasa

Weather History for 63820 - December, 2013

Change the Weather History Date:

Friday, December 27, 2013

  Actual Average Record
Temperature  
Mean Temperature 82 °F -  
Max Temperature 90 °F 92 °F - ()
Min Temperature 73 °F 72 °F - ()
Cooling Degree Days 16    
Growing Degree Days 32 (Base 50)    
Moisture  
Dew Point 74 °F    
Average Humidity 78    
Maximum Humidity 99    
Minimum Humidity 50    
Precipitation  
Precipitation 0.04 in 0.05 in - ()
Sea Level Pressure  
Sea Level Pressure 29.92 in    
Wind  
Wind Speed 7 mph ()    
Max Wind Speed 21 mph    
Max Gust Speed -    
Visibility 9.4 miles    
Events      
T = Trace of Precipitation, MM = Missing Value Source: Averaged Metar Reports

Daily Weather History Graph

Daily Weather History Graph

Search for Another Location

Airport or City:

Trip Planner

Search our weather history database for the weather conditions in past years. The results will help you decide how hot, cold, wet, or windy it might be!

Date:

Astronomy

Dec. 27, 2013 Rise Set
Actual Time 6:11 AM EAT 6:33 PM EAT
Civil Twilight 5:49 AM EAT 6:55 PM EAT
Nautical Twilight 5:22 AM EAT 7:22 PM EAT
Astronomical Twilight 4:56 AM EAT 7:49 PM EAT
Moon 1:14 AM EAT (12/27) 1:44 PM EAT (12/27)
Length of Visible Light 13h 06m
Length of Day
12h 21m
Waning Crescent, 32% of the Moon is Illuminated
Dec 27
Waning Crescent
Jan 1
New
Jan 8
First Quarter
Jan 16
Full
Jan 24
Last Quarter

Hourly Weather History & Observations

Time (EAT) Temp. Heat Index Dew Point Humidity Pressure Visibility Wind Dir Wind Speed Gust Speed Precip Events Conditions
12:00 AM 78 °F - 78 °F 99% 29.94 in 19 mi NE 8.1 mph - -   Mostly Cloudy
12:00 AM 78.8 °F - 75.2 °F 89% 29.95 in 6.2 mi NE 8.1 mph - N/A   Mostly Cloudy
1:00 AM 77.0 °F - 75.2 °F 94% 29.92 in 6.2 mi NE 5.8 mph - N/A   Scattered Clouds
2:00 AM 77.0 °F - 75.2 °F 94% 29.89 in 6.2 mi Calm Calm - N/A   Mostly Cloudy
3:00 AM 77 °F - 74 °F 90% 29.90 in 19 mi Calm Calm - -   Mostly Cloudy
3:00 AM 77.0 °F - 75.2 °F 94% 29.89 in 6.2 mi Calm Calm - N/A   Mostly Cloudy
4:00 AM 77.0 °F - 75.2 °F 94% 29.89 in 6.2 mi Calm Calm - N/A   Scattered Clouds
5:00 AM 77.0 °F - 75.2 °F 94% 29.92 in 6.2 mi Calm Calm - N/A   Partly Cloudy
6:00 AM 76 °F - 74 °F 91% 29.93 in 19 mi Calm Calm - -   Partly Cloudy
6:00 AM 77.0 °F - 73.4 °F 89% 29.92 in 6.2 mi Calm Calm - N/A   Scattered Clouds
7:00 AM 77.0 °F - 75.2 °F 94% 29.95 in 6.2 mi Calm Calm - N/A   Partly Cloudy
8:00 AM 80.6 °F 85.4 °F 73.4 °F 79% 29.98 in 6.2 mi North 9.2 mph - N/A   Partly Cloudy
9:00 AM 82 °F - 74 °F 69% 29.98 in 19 mi North 13.8 mph - -   Mostly Cloudy
9:00 AM 82.4 °F 88.2 °F 73.4 °F 74% 29.98 in 6.2 mi North 13.8 mph - N/A   Mostly Cloudy
10:00 AM 84.2 °F 90.9 °F 73.4 °F 70% 29.98 in 6.2 mi NNW 9.2 mph - N/A   Mostly Cloudy
11:00 AM 86.0 °F 91.8 °F 71.6 °F 62% 29.98 in 6.2 mi NNW 11.5 mph - N/A   Mostly Cloudy
12:00 PM 88 °F - 72 °F 50% 29.94 in 19 mi NE 18.4 mph - -   Mostly Cloudy
12:00 PM 87.8 °F 93.8 °F 71.6 °F 58% 29.95 in 6.2 mi NE 18.4 mph - N/A   Mostly Cloudy
1:00 PM 89.6 °F 96.2 °F 71.6 °F 55% 29.92 in 6.2 mi NE 11.5 mph - N/A   Mostly Cloudy
2:00 PM 86.0 °F 95.1 °F 75.2 °F 70% 29.89 in 6.2 mi East 11.5 mph - N/A   Mostly Cloudy
3:00 PM 88 °F - 73 °F 52% 29.86 in 19 mi East 20.7 mph - -   Partly Cloudy
3:00 PM 87.8 °F 95.6 °F 73.4 °F 62% 29.86 in 6.2 mi East 20.7 mph - N/A   Scattered Clouds
4:00 PM 86.0 °F 91.8 °F 71.6 °F 62% 29.83 in 6.2 mi East 13.8 mph - N/A   Partly Cloudy
5:00 PM 84.2 °F 89.6 °F 71.6 °F 66% 29.83 in 6.2 mi ENE 13.8 mph - N/A   Partly Cloudy
6:00 PM 83 °F - 74 °F 67% 29.86 in 19 mi NE 18.4 mph - -   Scattered Clouds
6:00 PM 82.4 °F 88.2 °F 73.4 °F 74% 29.86 in 6.2 mi NE 18.4 mph - N/A   Partly Cloudy
7:00 PM 80.6 °F 85.4 °F 73.4 °F 79% 29.89 in 6.2 mi NE 13.8 mph - N/A   Partly Cloudy
8:00 PM 80.6 °F 86.2 °F 75.2 °F 84% 29.89 in 6.2 mi ENE 13.8 mph - N/A   Partly Cloudy
9:00 PM 80 °F - 75 °F 81% 29.92 in 19 mi NE 13.8 mph - -   Scattered Clouds
9:00 PM 80.6 °F 86.2 °F 75.2 °F 84% 29.92 in 6.2 mi NE 13.8 mph - N/A   Partly Cloudy
10:00 PM 78.8 °F - 75.2 °F 89% 29.95 in 6.2 mi NE 11.5 mph - N/A   Partly Cloudy
11:00 PM 78.8 °F - 75.2 °F 89% 29.95 in 6.2 mi Calm Calm - N/A   Partly Cloudy